Home   Weather   Greenwich Borough   Past weeks

Flag for United Kingdom Past Weather in Greenwich Borough, England, United Kingdom — Yesterday and Last 2 Weeks

Now
52 °F

Fog.


Feels Like: 49 °F
Forecast: N/A
Wind: 8 mph from Southwest

Location: Biggin Hill Airport

Current Time: Dec 8, 2016 at 8:25:14 pm

Latest Report: Dec 8, 2016 at 7:50 pm


Visibility: 0 mi

Pressure: 30.33 "Hg

Humidity: 100%

Dew Point: 52 °F

Location of Greenwich BoroughLocation

Past Weather in Greenwich Borough — Graph

°F

Greenwich Borough Temperature Yesterday

Maximum temperature yesterday: 54 °F (at 11:20 am)
Minimum temperature yesterday: 50 °F (at 6:50 am)
Average temperature yesterday: 52 °F

High & Low Weather Summary for the Past Weeks

 TemperatureHumidityPressure
High55 °F (Dec 8, 12:20 pm)100% (Nov 23, 8:50 pm)30.57 "Hg (Nov 23, 8:50 pm)
Low27 °F (Nov 30, 9:20 am)42% (Nov 30, 12:20 pm)30.09 "Hg (Nov 23, 7:20 pm)
Average43 °F82%30.30 "Hg
* Reported Nov 23 7:20 pm — Dec 8 7:20 pm, Greenwich Borough, Weather by CustomWeather, © 2016

Note: Actual official high and low records may vary slightly from our data, if they occured in-between our weather recording intervals... More about our weather records

Advertising

Greenwich Borough Weather History for the Previous 24 Hours

Scroll right to see more
 ConditionsComfort  
Time TempWeatherWind HumidityBarometerVisibility
7:20 pm
Thu, Dec 8
52 °FRain. Passing clouds.8 mph100%30.33 "HgN/A
6:50 pm52 °FRain. Passing clouds.10 mph100%30.33 "HgN/A
6:20 pm52 °FRain. Passing clouds.10 mph100%30.30 "HgN/A
5:50 pm54 °FRain. Partly cloudy.12 mph94%30.30 "HgN/A
5:20 pm52 °FRain. Passing clouds.9 mph100%30.30 "HgN/A
4:50 pm52 °FRain. Passing clouds.10 mph100%30.30 "HgN/A
4:20 pm52 °FPassing clouds.12 mph100%30.27 "HgN/A
3:50 pm52 °FFog.13 mph100%30.27 "Hg2 mi
3:20 pm52 °FFog.16 mph100%30.24 "Hg2 mi
2:50 pm52 °FPartly sunny.13 mph100%30.27 "Hg5 mi
2:20 pm54 °FPartly sunny.15 mph88%30.24 "Hg5 mi
1:50 pm54 °FPartly sunny.15 mph88%30.24 "Hg5 mi
1:20 pm54 °FPartly sunny.16 mph88%30.27 "Hg5 mi
12:50 pm54 °FPartly sunny.16 mph88%30.27 "Hg5 mi
12:20 pm55 °FPartly sunny.17 mph88%30.27 "Hg5 mi
11:50 am54 °FBroken clouds.18 mph94%30.27 "Hg4 mi
11:20 am54 °FPartly sunny.16 mph94%30.27 "Hg4 mi
10:50 am54 °FPartly sunny.20 mph88%30.27 "Hg4 mi
10:20 am52 °FScattered clouds.17 mph94%30.27 "HgN/A
9:50 am52 °FPartly sunny.15 mph88%30.27 "HgN/A
9:20 am52 °FScattered clouds.13 mph88%30.30 "HgN/A
8:50 am50 °FSunny.14 mph88%30.27 "Hg10 mi
8:20 am50 °FPassing clouds.14 mph88%30.27 "HgN/A
7:50 am50 °FClear.15 mph88%30.27 "Hg10 mi
7:20 am50 °FClear.15 mph88%30.27 "Hg10 mi
6:50 am50 °FClear.17 mph88%30.27 "Hg10 mi
8:20 pm
Wed, Dec 7
52 °FClear.15 mph82%30.33 "Hg10 mi
Weather by CustomWeather, © 2016

See weather overviewHow to use our weather pages